GW5218 Weather Reports


time (UTC)temp
C
wind
direction
speed
KPH
gust
KPH
rain 1hr
cm
rain 24hr
cm
rain mn
cm
humidity
%
barometer
mb
20260510203014 28 143 1.6 8.0 0.00 0.00 0.00 60 1015.8
20260510201517 28 104 3.2 8.0 0.00 0.00 0.00 59 1015.7
20260510200021 28 115 3.2 8.0 0.00 0.00 0.00 60 1015.4
20260510194507 29 142 3.2 8.0 0.00 0.00 0.00 58 1015.6
20260510193008 28 121 3.2 6.4 0.00 0.00 0.00 60 1015.6
20260510191518 28 133 1.6 4.8 0.00 0.00 0.00 61 1015.5
20260510190026 28 124 1.6 6.4 0.00 0.00 0.00 60 1015.7
20260510184524 28 122 3.2 8.0 0.00 0.00 0.00 59 1015.8
20260510183017 28 120 1.6 8.0 0.00 0.00 0.00 63 1016.0
20260510181514 28 104 1.6 6.4 0.00 0.00 0.00 60 1016.1
20260510180015 29 121 3.2 6.4 0.00 0.00 0.00 62 1016.2
20260510174520 30 164 1.6 4.8 0.00 0.00 0.00 58 1016.3
20260510173026 29 216 1.6 8.0 0.00 0.00 0.00 62 1016.6
20260510171511 28 130 1.6 8.0 0.00 0.00 0.00 63 1016.7
20260510170014 28 66 1.6 6.4 0.00 0.00 0.00 65 1016.7
20260510164529 28 321 0.0 4.8 0.00 0.00 0.00 61 1016.9
20260510163022 28 94 1.6 4.8 0.00 0.00 0.00 64 1017.1
20260510161526 27 79 1.6 4.8 0.00 0.00 0.00 68 1017.0
20260510160011 26 151 1.6 3.2 0.00 0.00 0.00 70 1016.8
20260510154516 26 46 1.6 4.8 0.00 0.00 0.00 72 1016.7
20260510153026 25 305 0.0 3.2 0.00 0.00 0.00 76 1016.7
20260510151522 24 103 0.0 3.2 0.00 0.00 0.00 80 1016.7
20260510150026 23 147 1.6 3.2 0.00 0.00 0.00 82 1017.0
20260510144510 22 156 0.0 3.2 0.00 0.00 0.00 90 1017.1
20260510143016 21 37 0.0 4.8 0.00 0.00 0.00 91 1017.1
20260510141519 21 104 0.0 3.2 0.00 0.00 0.00 90 1017.2
20260510140024 20 31 0.0 4.8 0.00 0.00 0.00 91 1017.0
20260510134526 20 79 1.6 3.2 0.00 0.00 0.00 92 1017.0
20260510133016 20 277 0.0 3.2 0.00 0.00 0.00 92 1016.7
20260510131517 19 106 1.6 3.2 0.00 0.00 0.00 92 1016.5
20260510130029 19 62 0.0 1.6 0.00 0.00 0.00 92 1016.3
20260510124538 18 8 0.0 3.2 0.00 0.00 0.00 92 1016.2
20260510123028 18 293 0.0 3.2 0.00 0.00 0.00 92 1016.1
20260510121516 18 352 0.0 1.6 0.00 0.00 0.00 92 1016.0
20260510120020 18 309 0.0 1.6 0.00 0.00 0.00 92 1015.7
20260510114526 18 58 0.0 1.6 0.00 0.00 0.00 92 1015.4
20260510113032 18 55 0.0 1.6 0.00 0.00 0.00 92 1015.0
20260510111547 18 73 0.0 1.6 0.00 0.00 0.00 92 1014.6
20260510110018 18 354 0.0 1.6 0.00 0.00 0.00 92 1014.5
20260510104524 18 354 0.0 1.6 0.00 0.00 0.00 92 1014.1
20260510103006 18 354 0.0 1.6 0.00 0.00 0.00 92 1013.9
20260510101508 18 82 0.0 1.6 0.00 0.00 0.00 92 1013.6
20260510100013 18 288 0.0 1.6 0.00 0.00 0.00 92 1013.6
20260510094519 18 1 0.0 1.6 0.00 0.00 0.00 92 1013.5
20260510093004 18 285 0.0 1.6 0.00 0.00 0.00 91 1013.5
20260510091508 18 318 0.0 3.2 0.00 0.00 0.00 91 1013.4
20260510090013 18 298 0.0 1.6 0.00 0.03 0.00 91 1013.3
20260510084517 18 280 0.0 1.6 0.00 0.03 0.00 91 1013.2
20260510083023 18 125 0.0 1.6 0.00 0.03 0.00 91 1013.3
20260510081509 18 126 0.0 1.6 0.00 0.03 0.00 91 1013.1
20260510080008 18 287 0.0 1.6 0.00 0.05 0.00 91 1013.1
20260510074512 18 297 0.0 3.2 0.00 0.05 0.00 91 1012.9
20260510073027 18 169 0.0 1.6 0.00 0.05 0.00 91 1012.7
20260510071533 18 306 0.0 1.6 0.00 0.05 0.00 91 1012.9
20260510070010 18 309 0.0 1.6 0.00 0.05 0.00 91 1013.0
20260510064534 18 314 0.0 0.0 0.00 0.05 0.00 91 1013.0
20260510063018 18 314 0.0 0.0 0.00 0.05 0.00 91 1013.1
20260510061532 18 326 0.0 1.6 0.00 0.05 0.00 92 1013.3
20260510060032 18 2 0.0 1.6 0.00 0.05 0.00 92 1013.3
20260510054505 18 345 0.0 1.6 0.00 0.05 0.00 91 1013.1
20260510053011 18 345 0.0 0.0 0.00 0.05 0.00 91 1013.3
20260510051516 18 345 0.0 1.6 0.00 0.05 0.00 91 1013.4
20260510050020 19 345 0.0 0.0 0.00 0.05 0.00 91 1013.2
20260510044531 19 345 0.0 0.0 0.00 0.05 0.05 91 1013.4
20260510043008 19 345 0.0 0.0 0.00 0.05 0.05 91 1013.3
20260510041515 19 345 0.0 1.6 0.00 0.05 0.05 91 1013.1
20260510040018 20 345 0.0 1.6 0.00 0.05 0.05 91 1013.6
20260510034524 20 346 0.0 1.6 0.00 0.05 0.05 91 1014.0
20260510033026 20 345 0.0 1.6 0.00 0.05 0.05 91 1013.8
20260510031510 20 345 1.6 1.6 0.00 0.05 0.05 91 1013.7
20260510030015 20 240 0.0 1.6 0.00 0.05 0.05 91 1013.9
20260510024524 20 240 0.0 0.0 0.00 0.05 0.05 91 1013.8
20260510023027 20 242 1.6 6.4 0.00 0.05 0.05 91 1013.4
20260510021527 20 242 1.6 3.2 0.00 0.05 0.05 91 1012.9
20260510020012 20 120 0.0 1.6 0.00 0.05 0.05 91 1012.5
20260510014517 20 105 0.0 1.6 0.00 0.05 0.05 91 1012.1
20260510013024 20 234 0.0 1.6 0.00 0.05 0.05 91 1013.0
20260510011504 20 127 0.0 1.6 0.00 0.05 0.05 91 1012.6
20260510010009 20 127 0.0 1.6 0.00 0.05 0.05 91 1012.4
20260510004516 20 247 0.0 1.6 0.00 0.05 0.05 91 1012.4
20260510003020 20 247 0.0 3.2 0.00 0.05 0.05 91 1012.5
20260510001524 20 227 0.0 3.2 0.00 0.05 0.05 91 1012.4
20260510000007 20 224 0.0 1.6 0.00 0.05 0.05 91 1012.5
20260509234526 20 224 0.0 1.6 0.00 0.05 0.05 91 1012.9
20260509233031 20 224 1.6 3.2 0.00 0.05 0.05 91 1013.2
20260509231525 20 242 0.0 1.6 0.00 0.05 0.05 91 1012.8
20260509230024 20 98 0.0 1.6 0.00 0.05 0.05 91 1012.5
20260509224513 20 98 0.0 0.0 0.00 0.05 0.05 91 1011.8
20260509223017 20 98 0.0 1.6 0.00 0.05 0.05 91 1011.6
20260509221519 20 98 0.0 1.6 0.00 0.05 0.05 91 1012.1
20260509220027 20 291 0.0 1.6 0.00 0.05 0.05 91 1012.5
20260509214525 19 291 0.0 1.6 0.00 0.05 0.05 91 1012.4
20260509213010 20 132 0.0 6.4 0.00 0.05 0.05 91 1011.3
20260509211514 20 121 0.0 3.2 0.00 0.05 0.05 91 1011.0
20260509210025 20 117 1.6 3.2 0.00 0.05 0.05 91 1010.8
20260509204530 19 251 0.0 1.6 0.00 0.05 0.05 91 1011.3